KAZC

Details ICAO KAZC
Name COLORADO CITY MUNI
Region United States
Timezone America/Phoenix (UTC-7.0)
Plans Departing 9
Arriving 6
Stats Elevation 4,874 ft / 1,486 m (AMSL)
Location 36.959919° -113.013773°
Runways 2
Magnetic Variation 11.140° E
Sunrise 2018-05-26 12:18:07 UTC / 2018-05-26 05:18:07 Local
Sunset 2018-05-27 02:43:01 UTC / 2018-05-26 19:43:01 Local
Advertisement - Login to hide

Runways

ID Width Length Bearing (true) Bearing (mag) Surface Threshold Offset Overrun Length
01 60 ft / 18 m 5,105 ft / 1,556 m 27.87° 16.73° Asphalt 0 ft / 0 m 0 ft / 0 m
11 75 ft / 23 m 6,294 ft / 1,918 m 122.66° 111.52° Asphalt 0 ft / 0 m 0 ft / 0 m
19 60 ft / 18 m 5,105 ft / 1,556 m 207.88° 196.74° Asphalt 0 ft / 0 m 0 ft / 0 m
29 75 ft / 23 m 6,294 ft / 1,918 m 302.67° 291.53° Asphalt 0 ft / 0 m 0 ft / 0 m

Map

Weather


0- 5 10 15 20 25 30 35+ Temperature / ° C

Clouds and Precipitation
Forecast for 2018-05-26 18:00 UTC. Updated an hour ago

Ground ~20,000 ft ~40,000 ft Winds

METAR

KAZC 261835Z AUTO 17020G25KT 10SM CLR 26/M08 A2992 RMK AO2

TAF

Not found

Frequencies

Recorded 118.37 MHz AWOS 3
Unicom 122.70 MHz CTAF/UNICOM
Warning: Do not use this data for real-world aviation or navigation. No guarantee of current accuracy is given.